Eilat, Israel

4:01 AM IST on February 07, 2016 (GMT +0200)
Eilat

Weather History for LLET - October, 2012

Change the Weather History Date:

Monday, October 8, 2012

  Actual Average Record
Temperature  
Mean Temperature 81 °F -  
Max Temperature 92 °F 86 °F 101 °F (2014)
Min Temperature 70 °F 68 °F 65 °F (2013)
Cooling Degree Days 16    
Growing Degree Days 31 (Base 50)    
Moisture  
Dew Point 54 °F    
Average Humidity 33    
Maximum Humidity 53    
Minimum Humidity 16    
Precipitation  
Precipitation 0.00 in 0.00 in - ()
Sea Level Pressure  
Sea Level Pressure 29.89 in    
Wind  
Wind Speed 8 mph ()    
Max Wind Speed 16 mph    
Max Gust Speed -    
Visibility 14.0 miles    
Events      
Averages and records for this station are not official NWS values.
T = Trace of Precipitation, MM = Missing Value Source: Averaged Metar Reports

Daily Weather History Graph

Daily Weather History Graph

Search for Another Location

Airport or City:

Trip Planner

Search our weather history database for the weather conditions in past years. The results will help you decide how hot, cold, wet, or windy it might be!

Date:

Astronomy

Oct. 08, 2012 Rise Set
Actual Time 5:37 AM IST 5:17 PM IST
Civil Twilight 5:13 AM IST 5:41 PM IST
Nautical Twilight 4:46 AM IST 6:08 PM IST
Astronomical Twilight 4:18 AM IST 6:36 PM IST
Moon 11:22 PM IST (10/8) 12:24 PM IST (10/8)
Length of Visible Light 12h 27m
Length of Day
11h 39m
Waning Gibbous, 49% of the Moon is Illuminated
Oct 8
Waning Gibbous
Oct 15
New
Oct 22
First Quarter
Oct 29
Full
Nov 7
Last Quarter

Hourly Weather History & Observations

Time (IST) Temp. Heat Index Dew Point Humidity Pressure Visibility Wind Dir Wind Speed Gust Speed Precip Events Conditions
2:00 AM 76 °F - 54 °F 35% 29.91 in 12 mi ENE 3.5 mph - -  
6:50 AM 75.2 °F - 57.2 °F 53% 29.92 in - NE 6.9 mph - N/A   Clear
7:50 AM 78.8 °F - 57.2 °F 47% 29.95 in - NE 10.4 mph - N/A   Clear
8:00 AM 80 °F - 58 °F 36% 29.96 in 16 mi NE 4.6 mph - -  
8:50 AM 82.4 °F 82.5 °F 59.0 °F 45% 29.95 in - NE 9.2 mph - N/A   Clear
9:50 AM 84.2 °F 83.5 °F 57.2 °F 40% 29.95 in - NE 12.7 mph - N/A   Clear
10:50 AM 86.0 °F 84.5 °F 55.4 °F 35% 29.92 in - NNE 12.7 mph - N/A   Clear
11:50 AM 87.8 °F 85.7 °F 53.6 °F 31% 29.89 in - NNE 12.7 mph - N/A   Clear
12:50 PM 89.6 °F 87.3 °F 53.6 °F 29% 29.86 in - NE 11.5 mph - N/A   Clear
1:50 PM 89.6 °F 87.3 °F 53.6 °F 29% 29.86 in - NNE 12.7 mph - N/A   Clear
2:00 PM 92 °F - 52 °F 16% 29.86 in 16 mi NNE 5.8 mph - -  
2:50 PM 91.4 °F - 51.8 °F 26% 29.83 in - NNE 12.7 mph - N/A   Clear
3:50 PM 89.6 °F - 50.0 °F 26% 29.83 in - NNE 16.1 mph - N/A   Clear
4:50 PM 89.6 °F - 51.8 °F 27% 29.83 in - NNE 12.7 mph - N/A   Clear
5:50 PM 87.8 °F - 50.0 °F 27% 29.86 in - North 10.4 mph - N/A   Clear
6:50 PM 87.8 °F - 51.8 °F 29% 29.86 in - North 11.5 mph - N/A   Clear
7:50 PM 86.0 °F 84.2 °F 53.6 °F 33% 29.86 in - North 8.1 mph - N/A   Clear
8:00 PM 85 °F - 52 °F 22% 29.88 in 12 mi NNW 4.6 mph - -  
8:50 PM 82.4 °F 81.7 °F 55.4 °F 39% 29.89 in - NNE 15.0 mph - N/A   Clear
9:50 PM 82.4 °F 82.0 °F 57.2 °F 42% 29.89 in - NNE 13.8 mph - N/A   Clear